Simultaneous Nadir Overpasses (SNOs) Predictions

Prediction of SNOs between TERRA and METOP-C Satellite Orbit:

Table of predicted SNOs for the next 14.0 days since TLE Epoch: 8/17/2024
Index Date (TERRA) Time (TERRA) Lat,Lon (TERRA) SZA (TERRA ) Date (METOP-C) Time (METOP-C) Lat,Lon (METOP-C) SZA (METOP-C ) Distance(km) Time Diff (sec)
1 08/18/2024 21:54:38 -74.97, 28.70 117.79 08/18/2024 21:54:37 -74.95, 28.61 117.80 2.82 1
2 08/18/2024 22:41:26 81.26,-128.47 69.82 08/18/2024 22:42:39 80.82,-127.27 69.58 53.25 73
3 08/21/2024 11:40:45 57.40, -16.73 48.50 08/21/2024 11:39:33 57.65, -18.26 49.22 95.00 72
4 08/21/2024 12:24:53 -75.02, 171.24 116.88 08/21/2024 12:24:52 -75.03, 171.26 116.87 0.87 1
5 08/21/2024 13:11:10 81.84, 26.66 72.31 08/21/2024 13:12:23 81.26, 27.33 72.00 66.07 73
6 08/24/2024 02:09:19 63.25, 129.58 53.82 08/24/2024 02:08:06 63.44, 128.44 54.26 60.47 73
7 08/24/2024 02:55:12 -74.80, -46.94 116.22 08/24/2024 02:55:13 -74.79, -46.97 116.22 0.97 1
8 08/26/2024 16:37:25 70.43, -80.38 60.69 08/26/2024 16:36:12 70.48, -80.85 60.80 18.31 73
9 08/26/2024 17:25:29 -74.58, 94.95 115.52 08/26/2024 17:25:33 -74.58, 94.89 115.53 2.27 4
10 08/29/2024 07:06:41 73.37, 67.03 64.24 08/29/2024 07:05:30 73.37, 67.05 64.26 0.73 71
11 08/29/2024 07:55:42 -74.44,-122.96 114.74 08/29/2024 07:55:50 -74.43,-123.05 114.75 2.99 8



Historial Predications of SNOs between TERRA and METOP-C
